CZ-6A DEB, 56653

Orbit data source: Space-Track

CZ-6A DEB, 56653 is space debris in SSO originally from a launch on Fri, 11 Nov 2022 UTC launched from the Taiyaun Space Center, China (TSC). Debris objects in space refer to the collection of defunct objects orbiting the Earth. Examples of debris include non-operational satellites, rocket bodies, and fragments generated from explosions, collisions, or faulty payload assembly.

Loading next visibility...
Identifier
56653, 2022-151AGD
Orbit
SSO
Country
Flag of CNCN / PRC
Related business
Manufacturer
SAST
Mission
Spacecraft
Bus & Motor
Unknown
Mass
Unknown
Launch date (UTC)
2022-11-11 (4 years ago)
Launch vehicle
Unknown
Launch site
Taiyaun Space Center, China (TSC)
Object type
Payload
Rocket body
Debris
Shape & HBR
Unknown shape, 0.1 m
Radar Cross Section
Small (<0.1 m²)

Expand to show TLE details & history
Last TLE update: 2 days ago

TLE from 2 days ago
0 CZ-6A DEB
1 56653U 22151AGD 26171.44680377  .00006141  00000-0  88546-3 0  9998
2 56653  98.6038 258.2351 0106610 178.4323 181.7238 14.72829202168663
Epoch: 2026-06-20T10:43Z
TLE epoch observation values (Epoch: 2026-06-20T10:43:23.845Z)
Latitude
-0.00005°
Longitude
-171.27555°
Altitude
729.972 km
Speed
7.45 km/s
True Right ascension
17h 12m 56s
True Declination
0° 00' 00"
Sunlit
Object was in full shadow at epoch
Visualization orbit readout
Latitude
Unknown
Longitude
Unknown
Altitude
Unknown
Speed
Unknown
Apparent Right ascension
Unknown
Apparent Declination
Unknown
Sunlit
N/A
Visualization observer readout
Local Sidereal Time
21:31:44
Azimuth
Unknown
Elevation
Unknown
Doppler factor
Unknown
Orbital elements
Apogee altitude
724.051 km
Perigee altitude
574.216 km
Semi-major axis
7,027.27 km
Eccentricity
0.01066
Inclination
98.6038°
RAAN
258.2351°
Arg. of periapsis
178.4323°
True anomaly
181.68753°
Mean anomaly
181.7238°
Eccentric anomaly
181.70562°
Mean motion
3.68437 °/min
Orbital period
97.71 mins
BSTAR
0.00088546
Loading maneuver chart data...
Computing Atmospheric mass density...
Loading historical data...
Loading historical data...
Loading historical data...
Loading historical data...
Loading historical data...
Loading historical data...
Loading historical data...

Documentation

Showing up to 5 results
|